TimeEDT,TemperatureF,Dew PointF,Humidity,Sea Level PressureIn,VisibilityMPH,Wind Direction,Wind SpeedMPH,Gust SpeedMPH,PrecipitationIn,Events,Conditions,WindDirDegrees,DateUTC
12:15 AM,73.4,71.6,94,30.10,10.0,South,5.8,-,N/A,,Clear,180,2013-08-23 04:15:00
12:35 AM,73.4,73.4,100,30.10,10.0,SSW,3.5,-,N/A,,Clear,200,2013-08-23 04:35:00
12:55 AM,73.4,73.4,100,30.10,10.0,WSW,4.6,-,N/A,,Clear,240,2013-08-23 04:55:00
1:15 AM,73.4,73.4,100,30.09,10.0,West,4.6,-,N/A,,Clear,280,2013-08-23 05:15:00
1:35 AM,71.6,71.6,100,30.09,10.0,West,4.6,-,N/A,,Clear,270,2013-08-23 05:35:00
1:55 AM,71.6,71.6,100,30.09,10.0,WSW,3.5,-,N/A,,Clear,250,2013-08-23 05:55:00
2:15 AM,71.6,71.6,100,30.09,10.0,Calm,Calm,-,N/A,,Clear,0,2013-08-23 06:15:00
2:35 AM,71.6,71.6,100,30.09,10.0,Calm,Calm,-,N/A,,Clear,0,2013-08-23 06:35:00
2:55 AM,71.6,71.6,100,30.09,10.0,SSW,3.5,-,N/A,,Clear,210,2013-08-23 06:55:00
3:15 AM,71.6,71.6,100,30.09,10.0,SSW,3.5,-,N/A,,Clear,210,2013-08-23 07:15:00
3:35 AM,71.6,71.6,100,30.08,10.0,South,5.8,-,N/A,,Clear,190,2013-08-23 07:35:00
3:55 AM,71.6,71.6,100,30.08,10.0,SW,3.5,-,N/A,,Clear,220,2013-08-23 07:55:00
4:15 AM,71.6,71.6,100,30.07,10.0,SW,3.5,-,N/A,,Clear,220,2013-08-23 08:15:00
4:35 AM,71.6,71.6,100,30.07,10.0,SW,4.6,-,N/A,,Clear,230,2013-08-23 08:35:00
4:55 AM,71.6,71.6,100,30.06,10.0,WSW,5.8,-,N/A,,Clear,240,2013-08-23 08:55:00
5:15 AM,71.6,71.6,100,30.07,10.0,WSW,6.9,-,N/A,,Clear,240,2013-08-23 09:15:00
5:35 AM,71.6,71.6,100,30.07,10.0,WSW,5.8,-,N/A,,Clear,240,2013-08-23 09:35:00
5:55 AM,71.6,71.6,100,30.07,10.0,SW,8.1,-,N/A,,Clear,230,2013-08-23 09:55:00
6:15 AM,71.6,71.6,100,30.07,10.0,SW,6.9,-,N/A,,Clear,230,2013-08-23 10:15:00
6:35 AM,69.8,69.8,100,30.07,7.0,SW,5.8,-,N/A,,Clear,230,2013-08-23 10:35:00
6:55 AM,69.8,69.8,100,30.08,7.0,WSW,6.9,-,N/A,,Clear,240,2013-08-23 10:55:00
7:15 AM,69.8,69.8,100,30.08,5.0,WSW,5.8,-,N/A,,Scattered Clouds,240,2013-08-23 11:15:00
7:35 AM,69.8,69.8,100,30.09,4.0,WSW,6.9,-,N/A,,Clear,250,2013-08-23 11:35:00
7:55 AM,71.6,71.6,100,30.09,5.0,West,4.6,-,N/A,,Clear,260,2013-08-23 11:55:00
8:15 AM,71.6,71.6,100,30.10,10.0,West,5.8,-,N/A,,Clear,260,2013-08-23 12:15:00
8:35 AM,73.4,73.4,100,30.10,10.0,West,6.9,-,N/A,,Clear,260,2013-08-23 12:35:00
8:55 AM,77.0,71.6,83,30.10,10.0,West,8.1,-,N/A,,Clear,280,2013-08-23 12:55:00
9:15 AM,77.0,69.8,78,30.10,10.0,West,5.8,-,N/A,,Clear,260,2013-08-23 13:15:00
9:35 AM,77.0,69.8,78,30.10,10.0,West,5.8,-,N/A,,Clear,270,2013-08-23 13:35:00
9:55 AM,78.8,69.8,74,30.10,10.0,West,6.9,-,N/A,,Clear,270,2013-08-23 13:55:00
10:15 AM,80.6,68.0,65,30.11,10.0,West,10.4,-,N/A,,Clear,280,2013-08-23 14:15:00
10:35 AM,82.4,69.8,66,30.11,10.0,WNW,5.8,-,N/A,,Clear,300,2013-08-23 14:35:00
10:55 AM,82.4,68.0,62,30.11,10.0,WNW,6.9,-,N/A,,Clear,290,2013-08-23 14:55:00
11:15 AM,82.4,68.0,62,30.11,10.0,WNW,4.6,-,N/A,,Clear,290,2013-08-23 15:15:00
11:35 AM,84.2,69.8,62,30.11,10.0,NNW,8.1,-,N/A,,Clear,330,2013-08-23 15:35:00
11:55 AM,82.4,69.8,66,30.11,10.0,NW,6.9,-,N/A,,Clear,320,2013-08-23 15:55:00
12:15 PM,86.0,69.8,58,30.10,10.0,NNW,4.6,-,N/A,,Clear,340,2013-08-23 16:15:00
12:35 PM,86.0,69.8,58,30.09,10.0,WSW,3.5,-,N/A,,Clear,240,2013-08-23 16:35:00
12:55 PM,87.8,69.8,55,30.08,10.0,WSW,5.8,-,N/A,,Scattered Clouds,250,2013-08-23 16:55:00
1:15 PM,87.8,68.0,52,30.08,10.0,West,3.5,-,N/A,,Scattered Clouds,280,2013-08-23 17:15:00
1:35 PM,87.8,68.0,52,30.07,10.0,West,5.8,-,N/A,,Scattered Clouds,270,2013-08-23 17:35:00
1:55 PM,87.8,69.8,55,30.06,10.0,WNW,4.6,-,N/A,,Mostly Cloudy,300,2013-08-23 17:55:00
2:15 PM,86.0,68.0,55,30.05,10.0,Calm,Calm,-,N/A,,Mostly Cloudy,0,2013-08-23 18:15:00
2:35 PM,86.0,68.0,55,30.05,10.0,WNW,4.6,-,N/A,,Mostly Cloudy,300,2013-08-23 18:35:00
2:55 PM,86.0,69.8,58,30.04,10.0,NW,4.6,-,N/A,Rain,Light Rain,310,2013-08-23 18:55:00
3:15 PM,87.8,69.8,55,30.03,10.0,Calm,Calm,-,N/A,,Clear,0,2013-08-23 19:15:00
3:35 PM,89.6,66.2,46,30.02,10.0,Calm,Calm,-,N/A,,Scattered Clouds,0,2013-08-23 19:35:00
3:55 PM,89.6,68.0,49,30.01,10.0,NW,6.9,-,N/A,,Mostly Cloudy,310,2013-08-23 19:55:00
4:15 PM,87.8,66.2,49,30.02,10.0,NW,5.8,-,N/A,,Mostly Cloudy,310,2013-08-23 20:15:00
4:35 PM,91.4,68.0,46,30.01,10.0,NW,5.8,-,N/A,,Mostly Cloudy,320,2013-08-23 20:35:00
4:55 PM,89.6,68.0,49,30.02,10.0,South,10.4,-,N/A,,Scattered Clouds,180,2013-08-23 20:55:00
5:15 PM,82.4,68.0,62,30.02,10.0,South,8.1,-,N/A,,Scattered Clouds,170,2013-08-23 21:15:00
5:35 PM,80.6,69.8,70,30.02,10.0,South,8.1,-,N/A,,Clear,190,2013-08-23 21:35:00
5:55 PM,84.2,69.8,62,30.03,10.0,SSE,8.1,-,N/A,,Clear,160,2013-08-23 21:55:00
6:15 PM,84.2,68.0,58,30.03,10.0,SSE,5.8,-,N/A,,Scattered Clouds,160,2013-08-23 22:15:00
6:35 PM,86.0,68.0,55,30.03,10.0,SSE,6.9,-,N/A,,Scattered Clouds,160,2013-08-23 22:35:00
6:55 PM,82.4,68.0,62,30.03,10.0,SSE,6.9,-,N/A,,Scattered Clouds,160,2013-08-23 22:55:00
7:15 PM,82.4,69.8,66,30.03,10.0,South,5.8,-,N/A,,Scattered Clouds,180,2013-08-23 23:15:00
7:35 PM,80.6,69.8,70,30.04,10.0,South,4.6,-,N/A,,Scattered Clouds,190,2013-08-23 23:35:00
7:55 PM,80.6,69.8,70,30.05,10.0,SSW,6.9,-,N/A,,Clear,200,2013-08-23 23:55:00
8:15 PM,78.8,69.8,74,30.05,10.0,SSW,4.6,-,N/A,,Clear,200,2013-08-24 00:15:00
8:35 PM,78.8,69.8,74,30.05,10.0,SSW,4.6,-,N/A,,Clear,200,2013-08-24 00:35:00
8:55 PM,78.8,69.8,74,30.06,10.0,Calm,Calm,-,N/A,,Scattered Clouds,0,2013-08-24 00:55:00
9:15 PM,78.8,71.6,78,30.07,10.0,Calm,Calm,-,N/A,,Scattered Clouds,0,2013-08-24 01:15:00
9:35 PM,77.0,73.4,89,30.07,10.0,SW,4.6,-,N/A,,Mostly Cloudy,230,2013-08-24 01:35:00
9:55 PM,77.0,73.4,89,30.07,10.0,SSW,5.8,-,N/A,,Scattered Clouds,200,2013-08-24 01:55:00
10:15 PM,77.0,73.4,89,30.07,10.0,South,6.9,-,N/A,,Clear,180,2013-08-24 02:15:00
10:35 PM,77.0,73.4,89,30.07,10.0,SSW,6.9,-,N/A,,Clear,200,2013-08-24 02:35:00
10:55 PM,77.0,73.4,89,30.07,10.0,SW,3.5,-,N/A,,Clear,220,2013-08-24 02:55:00
11:15 PM,75.2,73.4,94,30.08,10.0,Calm,Calm,-,N/A,,Scattered Clouds,0,2013-08-24 03:15:00
11:35 PM,77.0,73.4,89,30.09,10.0,WNW,5.8,-,N/A,,Mostly Cloudy,300,2013-08-24 03:35:00
11:55 PM,77.0,73.4,89,30.09,10.0,WNW,4.6,-,N/A,,Mostly Cloudy,300,2013-08-24 03:55:00